| time (UTC) | temp C | wind direction | speed KPH | gust KPH | rain 1hr cm | rain 24hr cm | rain mn cm | humidity % | barometer mb |
| 20260504234559 | 23 | 228 | 1.6 | 12.9 | 0.00 | 0.00 | 0.00 | 54 | 1011.9 |
| 20260504233102 | 23 | 209 | 3.2 | 16.1 | 0.00 | 0.00 | 0.00 | 53 | 1012.1 |
| 20260504231555 | 24 | 238 | 3.2 | 22.5 | 0.00 | 0.00 | 0.00 | 52 | 1012.1 |
| 20260504230054 | 24 | 248 | 1.6 | 29.0 | 0.00 | 0.00 | 0.00 | 51 | 1012.3 |
| 20260504224553 | 24 | 207 | 4.8 | 24.1 | 0.00 | 0.00 | 0.00 | 51 | 1012.3 |
| 20260504223056 | 25 | 228 | 0.0 | 32.2 | 0.00 | 0.00 | 0.00 | 51 | 1012.3 |
| 20260504221603 | 25 | 253 | 1.6 | 20.9 | 0.00 | 0.00 | 0.00 | 51 | 1012.3 |
| 20260504220113 | 25 | 257 | 6.4 | 27.4 | 0.00 | 0.00 | 0.00 | 51 | 1012.4 |
| 20260504214548 | 25 | 246 | 4.8 | 27.4 | 0.00 | 0.00 | 0.00 | 51 | 1012.3 |
| 20260504213057 | 25 | 259 | 4.8 | 25.7 | 0.00 | 0.00 | 0.00 | 51 | 1012.4 |
| 20260504211545 | 25 | 234 | 4.8 | 20.9 | 0.00 | 0.00 | 0.00 | 52 | 1012.6 |
| 20260504210042 | 25 | 261 | 3.2 | 25.7 | 0.00 | 0.00 | 0.00 | 52 | 1012.6 |
| 20260504204556 | 26 | 254 | 3.2 | 24.1 | 0.00 | 0.00 | 0.00 | 51 | 1012.8 |
| 20260504203037 | 26 | 250 | 3.2 | 17.7 | 0.00 | 0.00 | 0.00 | 52 | 1013.1 |
| 20260504201533 | 25 | 118 | 3.2 | 24.1 | 0.00 | 0.00 | 0.00 | 52 | 1013.2 |
| 20260504200029 | 25 | 234 | 9.7 | 22.5 | 0.00 | 0.00 | 0.00 | 52 | 1013.5 |
| 20260504194531 | 25 | 252 | 6.4 | 22.5 | 0.00 | 0.00 | 0.00 | 53 | 1013.8 |
| 20260504193026 | 25 | 241 | 9.7 | 20.9 | 0.00 | 0.00 | 0.00 | 55 | 1014.2 |
| 20260504191524 | 25 | 195 | 6.4 | 20.9 | 0.00 | 0.00 | 0.00 | 54 | 1014.3 |
| 20260504190020 | 25 | 248 | 6.4 | 20.9 | 0.00 | 0.00 | 0.00 | 55 | 1014.6 |
| 20260504184530 | 25 | 263 | 3.2 | 16.1 | 0.00 | 0.00 | 0.00 | 55 | 1014.5 |
| 20260504183021 | 25 | 281 | 4.8 | 16.1 | 0.00 | 0.00 | 0.00 | 57 | 1014.7 |
| 20260504181518 | 25 | 230 | 3.2 | 19.3 | 0.00 | 0.00 | 0.00 | 58 | 1014.8 |
| 20260504180013 | 24 | 156 | 11.3 | 22.5 | 0.00 | 0.00 | 0.00 | 59 | 1015.2 |
| 20260504174511 | 24 | 129 | 8.0 | 24.1 | 0.00 | 0.00 | 0.00 | 59 | 1015.2 |
| 20260504173010 | 24 | 198 | 6.4 | 19.3 | 0.00 | 0.00 | 0.00 | 63 | 1015.4 |
| 20260504171507 | 24 | 213 | 4.8 | 20.9 | 0.00 | 0.00 | 0.00 | 65 | 1015.5 |
| 20260504081550 | 15 | 360 | 0.0 | 9.7 | 0.00 | 0.00 | 0.00 | 73 | 1016.4 |
| 20260504050021 | 16 | 360 | 0.0 | 0.0 | 0.00 | 0.00 | 0.00 | 67 | 1017.7 |
| 20260504044521 | 16 | 360 | 0.0 | 6.4 | 0.00 | 0.00 | 0.00 | 66 | 1017.7 |
| 20260504043034 | 16 | 360 | 0.0 | 6.4 | 0.00 | 0.00 | 0.00 | 66 | 1017.5 |
| 20260504041518 | 16 | 360 | 0.0 | 3.2 | 0.00 | 0.00 | 0.00 | 65 | 1017.5 |
| 20260504040020 | 16 | 360 | 0.0 | 4.8 | 0.00 | 0.00 | 0.00 | 65 | 1017.6 |
| 20260504034549 | 16 | 360 | 0.0 | 1.6 | 0.00 | 0.00 | 0.00 | 65 | 1017.6 |
| 20260504033046 | 16 | 360 | 0.0 | 3.2 | 0.00 | 0.00 | 0.00 | 65 | 1018.0 |
| 20260504031544 | 15 | 360 | 0.0 | 0.0 | 0.00 | 0.00 | 0.00 | 65 | 1018.1 |
| 20260504030044 | 16 | 360 | 0.0 | 0.0 | 0.00 | 0.00 | 0.00 | 64 | 1018.1 |
| 20260504024548 | 16 | 360 | 0.0 | 0.0 | 0.00 | 0.00 | 0.00 | 64 | 1017.9 |
| 20260504023042 | 16 | 360 | 0.0 | 0.0 | 0.00 | 0.00 | 0.00 | 63 | 1017.8 |
| 20260504021540 | 16 | 360 | 0.0 | 0.0 | 0.00 | 0.00 | 0.00 | 63 | 1017.8 |
| 20260504020111 | 16 | 227 | 0.0 | 0.0 | 0.00 | 0.00 | 0.00 | 63 | 1017.6 |
| 20260504014554 | 16 | 360 | 0.0 | 1.6 | 0.00 | 0.00 | 0.00 | 62 | 1017.8 |
| 20260504013047 | 17 | 360 | 0.0 | 0.0 | 0.00 | 0.00 | 0.00 | 60 | 1017.6 |
| 20260504011508 | 18 | 360 | 0.0 | 0.0 | 0.00 | 0.00 | 0.00 | 55 | 1017.7 |
| 20260504010009 | 19 | 360 | 0.0 | 0.0 | 0.00 | 0.00 | 0.00 | 55 | 1017.4 |
| 20260504004553 | 20 | 249 | 0.0 | 0.0 | 0.00 | 0.00 | 0.00 | 54 | 1017.4 |
| 20260504003040 | 21 | 246 | 0.0 | 0.0 | 0.00 | 0.00 | 0.00 | 54 | 1017.4 |
| 20260504001527 | 22 | 246 | 0.0 | 0.0 | 0.00 | 0.00 | 0.00 | 51 | 1017.4 |
| 20260504000026 | 22 | 246 | 0.0 | 0.0 | 0.00 | 0.00 | 0.00 | 49 | 1017.5 |